Tracking 29089 objects as of 12-Jul-2024
HD Live streaming from Space Station
objects crossing your sky now

OPS 3367 A

Track OPS 3367 A now!
10-day predictions
OPS 3367 A is classified as:


NORAD ID: 734
Int'l Code: 1964-002B
Perigee: 790.1 km
Apogee: 812.5 km
Inclination: 99.0 °
Period: 100.8 minutes
Semi major axis: 7172 km
RCS: 0.3359 m2 (medium)
Launch date: January 19, 1964
Source: United States (US)
Launch site: AIR FORCE WESTERN TEST RANGE (AFWTR)
Your satellite tracking list
Your tracking list is empty




NASA's NSSDC Master Catalog

Two Line Element Set (TLE):
1 00734U 64002B   24194.41960649  .00000174  00000-0  86632-4 0  9996
2 00734  98.9889  92.4767 0015594  73.5693 286.7200 14.29271503148078
Source of the keplerian elements: AFSPC